This is the latest recevied weather packets stored in our database for station/object VY2CRA-4. If no packets are shown the sender has not sent any weather packets the latest 10 day(s).
| Time | Temp. | Humidity | Pressure | Rain* | Wind** | Luminosity | Snow |
|---|---|---|---|---|---|---|---|
| 1788081882 | 18.33° C | 52% | 1013 hPa | 0 mm | - | - | - |
| 1788080681 | 18.33° C | 52% | 1012.9 hPa | 0 mm | - | - | - |
| 1788079480 | 17.78° C | 53% | 1012.9 hPa | 0 mm | - | - | - |
| 1788078279 | 17.78° C | 53% | 1013 hPa | 0 mm | - | - | - |
| 1788077079 | 17.22° C | 53% | 1013 hPa | 0 mm | - | - | - |
| 1788075878 | 17.22° C | 52% | 1013 hPa | 0 mm | - | - | - |
| 1788074677 | 17.22° C | 52% | 1013.1 hPa | 0 mm | - | - | - |
| 1788073476 | 17.22° C | 52% | 1013.2 hPa | 0 mm | - | - | - |
| 1788072275 | 17.78° C | 52% | 1013.4 hPa | 0 mm | - | - | - |
| 1788071074 | 17.22° C | 51% | 1013.4 hPa | 0 mm | - | - | - |
| 1788068672 | 17.22° C | 50% | 1013.5 hPa | 0 mm | - | - | - |
| 1788067473 | 17.78° C | 50% | 1013.6 hPa | 0 mm | - | - | - |
| 1788066270 | 17.78° C | 49% | 1013.7 hPa | 0 mm | - | - | - |
| 1788065069 | 17.78° C | 49% | 1013.8 hPa | 0 mm | - | - | - |
| 1788063868 | 17.78° C | 49% | 1014 hPa | 0 mm | - | - | - |
| 1788062667 | 17.78° C | 48% | 1013.9 hPa | 0 mm | - | - | - |
| 1788061467 | 17.78° C | 48% | 1014 hPa | 0 mm | - | - | - |
| 1788060265 | 18.33° C | 47% | 1014 hPa | 0 mm | - | - | - |
| 1788057864 | 18.33° C | 45% | 1013.9 hPa | 0 mm | - | - | - |
| 1788056663 | 18.33° C | 44% | 1014 hPa | 0 mm | - | - | - |
| 1788055463 | 18.89° C | 42% | 1013.9 hPa | 0 mm | - | - | - |
| 1788054261 | 19.44° C | 41% | 1014 hPa | 0 mm | - | - | - |
| 1788050658 | 20.56° C | 36% | 1013.7 hPa | 0 mm | - | - | - |
| 1788049457 | 21.67° C | 35% | 1013.6 hPa | 0 mm | - | - | - |
| 1788048256 | 22.22° C | 33% | 1013.5 hPa | 0 mm | - | - | - |
* Rain since midnight (hover to see other rain measurements)
** Current wind speed in m/s (hover to see current wind gust speed)